[[{"header":{"parameterUnit":"m.s-1","parameterCategory":1,"la1":30.2991,"la2":30.254,"lo1":-89.0895,"lo2":-89.0444,"dy":0.0017,"dx":0.0017,"nx":28,"ny":28,"refTime":"2026-01-07T03:00:00:Z","depth":0,"parameterNumber":2,"parameterNumberName":"U-component_of_WINDS"},"data":[0,0,0,0,0,0,0,0,0,0,0,0,0,0,0,0,0,0,0,0,0,0,0,0,0,0,0,0,0,0,0,0,0,0,0,0,0,0,0,0,0,0,0,0,0,0,0,0,0,0,0,0,0,0,0,0,0,0,-0.6305,-0.6304,0,-0.6222,-0.6221,-0.622,-0.6173,-0.6173,-0.6172,-0.6172,-0.6086,-0.6084,-0.6081,0,0,0,0,0,0,0,0,0,0,0,0,0,-0.6422,-0.642,-0.6305,-0.6304,-0.6303,-0.6222,-0.6221,-0.622,-0.6173,-0.6173,-0.6172,-0.6172,-0.6086,-0.6084,-0.6081,0,0,0,0,0,0,0,0,0,0,0,0,0,-0.6359,-0.642,-0.6306,-0.627,-0.6266,-0.6222,-0.6221,-0.6219,-0.6173,-0.6173,-0.6172,-0.6172,-0.6087,-0.6084,-0.6081,-0.6066,0,0,-0.6071,-0.607,0,0,0,0,0,0,0,0,-0.6362,-0.6354,-0.6276,-0.6272,-0.6268,-0.6208,-0.623,-0.6168,-0.6173,-0.6208,-0.6172,-0.6172,-0.6126,-0.612,-0.6105,-0.6062,-0.6058,-0.6071,-0.6069,-0.6067,-0.6066,0,0,0,0,0,0,0,-0.6367,-0.6358,-0.6272,-0.6275,-0.627,-0.6258,-0.6248,-0.6218,-0.617,-0.6205,-0.6201,-0.6192,-0.6124,-0.6108,-0.6102,-0.6057,-0.6071,-0.6068,-0.6066,-0.6065,-0.5995,-0.5996,0,0,0,0,0,0,-0.6377,-0.6362,-0.6275,-0.627,-0.6315,-0.6256,-0.6245,-0.6227,-0.617,-0.6161,-0.6193,-0.619,-0.6114,-0.6106,-0.6099,-0.6077,-0.6067,-0.6064,-0.6062,-0.5995,-0.5995,-0.5996,0,0,0,0,0,0,-0.638,-0.637,-0.6278,-0.6315,-0.6302,-0.6254,-0.6234,-0.6226,-0.6209,-0.616,-0.6151,-0.6185,-0.6113,-0.6104,-0.6074,-0.6073,-0.6063,-0.606,-0.5995,-0.5995,-0.5995,-0.6032,0,0,0,0,0,0,-0.6383,-0.6371,-0.6365,-0.6315,-0.63,-0.6255,-0.6234,-0.6224,-0.6204,-0.6201,-0.6151,-0.6143,-0.6112,-0.6079,-0.6071,-0.6068,-0.6057,-0.5995,-0.5995,-0.5995,-0.6031,-0.6034,-0.6036,0,0,0,0,0,-0.6388,-0.6379,-0.6365,-0.6355,-0.6292,-0.6255,-0.6247,-0.6213,-0.6204,-0.6198,-0.6166,-0.6144,-0.6075,-0.6077,-0.6067,-0.6063,-0.5995,-0.5995,-0.5995,-0.603,-0.6033,-0.6036,0,0,0,0,0,0,-0.643,-0.6372,-0.6356,-0.6331,-0.6298,-0.6248,-0.6238,-0.6217,-0.6187,-0.6184,-0.6142,-0.6132,-0.6106,-0.6082,-0.6085,-0.6045,-0.6032,-0.6031,-0.6062,-0.6064,-0.6067,-0.6073,-0.6055,0,0,0,0,0,-0.6437,-0.6412,-0.6362,-0.6345,-0.6329,-0.6287,-0.6269,-0.6246,-0.621,-0.6196,-0.6163,-0.6129,-0.6099,-0.608,-0.6051,-0.6027,-0.6015,-0.602,-0.6022,-0.6025,-0.6024,-0.6008,-0.6009,-0.5996,-0.5996,-0.5996,0,0,-0.645,-0.6415,-0.6402,-0.6352,-0.6324,-0.6299,-0.6276,-0.625,-0.6231,-0.6192,-0.6162,-0.6136,-0.6096,-0.6069,-0.6056,-0.6048,-0.6024,-0.6025,-0.6027,-0.6025,-0.6009,-0.601,-0.6011,-0.5996,-0.5996,-0.5996,0,0,-0.646,-0.6432,-0.6414,-0.6386,-0.6344,-0.6316,-0.6312,-0.6264,-0.6245,-0.6214,-0.6185,-0.6161,-0.6111,-0.6083,-0.6062,-0.6062,-0.604,-0.6053,-0.6066,-0.6052,-0.6053,-0.6054,-0.6053,-0.6053,-0.6052,-0.6052,-0.6053,0,-0.6482,-0.6443,-0.6407,-0.6383,-0.6362,-0.6326,-0.6307,-0.6282,-0.6232,-0.6218,-0.6211,-0.6147,-0.6117,-0.6083,-0.6082,-0.6067,-0.606,-0.6059,-0.6056,-0.6056,-0.6056,-0.6055,-0.6055,-0.6054,-0.6054,-0.6054,-0.6054,0,-0.6471,-0.6445,-0.6435,-0.6388,-0.6366,-0.6345,-0.6304,-0.6286,-0.6264,-0.6236,-0.6205,-0.6168,-0.6129,-0.612,-0.6098,-0.6082,-0.6078,-0.6064,-0.605,-0.606,-0.6058,-0.6057,-0.6057,-0.6056,-0.6056,-0.6055,0,0,-0.6507,-0.6439,-0.6436,-0.6414,-0.6365,-0.6344,-0.6321,-0.6283,-0.6268,-0.6235,-0.6214,-0.6172,-0.6158,-0.6135,-0.6109,-0.6097,-0.6098,-0.6083,-0.6082,-0.6087,-0.6077,-0.6087,-0.6088,-0.6083,-0.6083,-0.6083,-0.608,0,-0.651,-0.6466,-0.6433,-0.6402,-0.6377,-0.6342,-0.6321,-0.6289,-0.6262,-0.6236,-0.6206,-0.6177,-0.6161,-0.6147,-0.6133,-0.6101,-0.6095,-0.61,-0.6062,-0.6061,-0.6073,-0.6086,-0.6098,-0.6097,-0.6079,-0.6079,-0.6078,0,-0.6508,-0.6476,-0.6443,-0.6395,-0.6383,-0.6366,-0.6328,-0.6304,-0.6266,-0.6247,-0.6221,-0.6195,-0.6168,-0.6157,-0.6119,-0.6123,-0.6106,-0.6087,-0.6086,-0.6081,-0.607,-0.6081,-0.6096,-0.6096,-0.6077,-0.6077,-0.6077,0,-0.6536,-0.6485,-0.6458,-0.644,-0.6385,-0.6373,-0.6349,-0.6311,-0.629,-0.6257,-0.6243,-0.6208,-0.6188,-0.6161,-0.6125,-0.6121,-0.609,-0.6077,-0.6073,-0.6074,-0.6068,-0.6069,-0.608,-0.6058,-0.6058,-0.6058,-0.6058,0,-0.6543,-0.6524,-0.647,-0.6453,-0.643,-0.6392,-0.637,-0.6343,-0.6309,-0.6286,-0.6254,-0.6233,-0.6188,-0.6161,-0.6133,-0.6105,-0.6097,-0.608,-0.6073,-0.6083,-0.6085,-0.607,-0.6069,-0.6058,-0.6058,-0.6058,-0.6058,0,-0.6571,-0.6534,-0.6502,-0.6452,-0.6439,-0.6424,-0.6381,-0.6363,-0.6334,-0.6306,-0.6297,-0.6252,-0.6218,-0.618,-0.6135,-0.6116,-0.609,-0.6079,-0.6103,-0.6098,-0.6097,-0.6097,-0.6098,-0.6096,-0.6077,-0.6077,-0.6077,0,-0.6577,-0.6562,-0.651,-0.6492,-0.6469,-0.6441,-0.642,-0.6381,-0.636,-0.6315,-0.6302,-0.6267,-0.6236,-0.6185,-0.6147,-0.6112,-0.61,-0.6103,-0.6095,-0.6105,-0.6099,-0.61,-0.6098,-0.6105,-0.6106,-0.6106,-0.6106,0,-0.6593,-0.6575,-0.6546,-0.651,-0.6485,-0.6455,-0.6423,-0.641,-0.6365,-0.6343,-0.6308,-0.6285,-0.6238,-0.6203,-0.6163,-0.6137,-0.6114,-0.6109,-0.6106,-0.6116,-0.613,-0.6121,-0.6108,-0.6109,-0.6109,-0.6109,-0.6109,-0.6108,-0.6609,-0.6593,-0.6554,-0.6522,-0.6494,-0.6465,-0.6446,-0.6414,-0.6385,-0.6344,-0.6323,-0.6289,-0.625,-0.6194,-0.6169,-0.6141,-0.6134,-0.613,-0.6128,-0.6128,-0.613,-0.6135,-0.6134,-0.6134,-0.6134,-0.6134,-0.6133,0,-0.6622,-0.6595,-0.6566,-0.6523,-0.6497,-0.6478,-0.6441,-0.6421,-0.6392,-0.6358,-0.6328,-0.6289,-0.6254,-0.6214,-0.6177,-0.6162,-0.615,-0.6154,-0.6154,-0.6148,-0.614,-0.6146,-0.6164,-0.6164,-0.6164,-0.6164,-0.6164,-0.6164,-0.6626,-0.6598,-0.6576,-0.6533,-0.6505,-0.6472,-0.6453,-0.6425,-0.6398,-0.6355,-0.6326,-0.63,-0.6263,-0.6223,-0.619,-0.6179,-0.6167,-0.6173,-0.6159,-0.6152,-0.6149,-0.6147,-0.6152,-0.6171,-0.6171,-0.6169,-0.6169,-0.6169]},{"header":{"parameterUnit":"m.s-1","parameterCategory":1,"la1":30.2991,"la2":30.254,"lo1":-89.0895,"lo2":-89.0444,"dy":0.0017,"dx":0.0017,"nx":28,"ny":28,"refTime":"2026-01-07T03:00:00:Z","depth":0,"parameterNumber":3,"parameterNumberName":"V-component_of_WINDS"},"data":[0,0,0,0,0,0,0,0,0,0,0,0,0,0,0,0,0,0,0,0,0,0,0,0,0,0,0,0,0,0,0,0,0,0,0,0,0,0,0,0,0,0,0,0,0,0,0,0,0,0,0,0,0,0,0,0,0,0,1.0348,1.0348,0,1.04,1.04,1.0401,1.0427,1.0427,1.0427,1.0427,1.048,1.0481,1.0483,0,0,0,0,0,0,0,0,0,0,0,0,0,1.0271,1.0272,1.0347,1.0348,1.0349,1.04,1.04,1.0401,1.0427,1.0427,1.0427,1.0427,1.0479,1.0481,1.0483,0,0,0,0,0,0,0,0,0,0,0,0,0,1.0311,1.0272,1.0347,1.0368,1.037,1.0399,1.04,1.0401,1.0427,1.0427,1.0427,1.0427,1.0479,1.0481,1.0483,1.0496,0,0,1.049,1.049,0,0,0,0,0,0,0,0,1.0309,1.0314,1.0364,1.0366,1.0369,1.0407,1.0393,1.0433,1.0427,1.0405,1.0427,1.0427,1.0455,1.046,1.0469,1.0499,1.0501,1.049,1.0491,1.0492,1.0493,0,0,0,0,0,0,0,1.0306,1.0312,1.0368,1.0365,1.0368,1.0374,1.038,1.0401,1.043,1.0407,1.0409,1.0415,1.0457,1.0467,1.0471,1.0502,1.049,1.0492,1.0493,1.0494,1.0546,1.0546,0,0,0,0,0,0,1.03,1.031,1.0367,1.037,1.0338,1.0376,1.0382,1.0395,1.043,1.0435,1.0415,1.0416,1.0464,1.0468,1.0473,1.0492,1.0492,1.0494,1.0495,1.0546,1.0546,1.0546,0,0,0,0,0,0,1.0298,1.0305,1.0364,1.034,1.0348,1.0377,1.0391,1.0396,1.0406,1.0435,1.0441,1.042,1.0464,1.047,1.0491,1.0494,1.0495,1.0497,1.0546,1.0546,1.0546,1.0529,0,0,0,0,0,0,1.0296,1.0304,1.0309,1.034,1.035,1.0381,1.0391,1.0397,1.041,1.0411,1.0442,1.0447,1.0464,1.0487,1.0493,1.0497,1.0499,1.0546,1.0546,1.0546,1.0529,1.0528,1.0527,0,0,0,0,0,1.0293,1.0302,1.0309,1.0316,1.0357,1.0381,1.0387,1.0407,1.041,1.0415,1.0434,1.0446,1.0492,1.0489,1.0496,1.05,1.0546,1.0546,1.0546,1.053,1.0528,1.0528,0,0,0,0,0,0,1.027,1.0306,1.0315,1.0334,1.0354,1.0385,1.0393,1.0405,1.0424,1.0425,1.0449,1.0456,1.0475,1.049,1.0485,1.0516,1.052,1.0522,1.0505,1.0505,1.0504,1.05,1.05,0,0,0,0,0,1.0267,1.0284,1.0315,1.0329,1.0339,1.0364,1.0375,1.0389,1.0411,1.042,1.0441,1.0462,1.0481,1.0494,1.0513,1.0531,1.0539,1.0538,1.0537,1.0536,1.0537,1.0549,1.0549,1.0547,1.0547,1.0547,0,0,1.0262,1.0284,1.0293,1.0325,1.0342,1.036,1.0371,1.0389,1.0402,1.0423,1.0444,1.046,1.0485,1.0505,1.0515,1.0518,1.054,1.0536,1.0536,1.0537,1.0549,1.055,1.055,1.0547,1.0547,1.0547,0,0,1.026,1.0278,1.0292,1.031,1.0336,1.0353,1.0356,1.0386,1.0398,1.0419,1.0436,1.0452,1.0485,1.0502,1.0516,1.0522,1.0533,1.0528,1.0523,1.0535,1.0535,1.0535,1.0538,1.0539,1.0529,1.0529,1.0529,0,1.025,1.0277,1.0298,1.0315,1.0329,1.0349,1.0364,1.038,1.0411,1.042,1.0423,1.0466,1.0484,1.0509,1.0511,1.052,1.0525,1.0524,1.0533,1.0534,1.0534,1.0538,1.0539,1.0528,1.0528,1.0528,1.0528,0,1.0263,1.0282,1.029,1.032,1.0335,1.0351,1.0375,1.0387,1.04,1.0417,1.0439,1.0462,1.0487,1.0493,1.0506,1.052,1.0522,1.0528,1.0534,1.0533,1.0537,1.0538,1.0527,1.0527,1.0527,1.0527,0,0,1.0249,1.0291,1.0294,1.0308,1.0339,1.0354,1.0371,1.0396,1.0407,1.0428,1.0443,1.0471,1.0478,1.0493,1.0507,1.0517,1.0522,1.0523,1.0524,1.0523,1.0541,1.0536,1.0537,1.053,1.053,1.053,1.0539,0,1.0252,1.0284,1.0304,1.0327,1.0345,1.0365,1.038,1.0401,1.0417,1.0435,1.0453,1.0472,1.048,1.0489,1.0499,1.0519,1.0526,1.0519,1.0545,1.0545,1.0538,1.0538,1.0533,1.054,1.054,1.054,1.0541,0,1.0261,1.0282,1.0307,1.0338,1.0346,1.0359,1.0384,1.04,1.0424,1.0436,1.0453,1.0468,1.0487,1.049,1.0518,1.0512,1.0524,1.0536,1.0536,1.054,1.0543,1.0543,1.0543,1.0544,1.0543,1.0543,1.0543,0,1.0249,1.0284,1.0304,1.0315,1.0351,1.036,1.0375,1.0399,1.0413,1.0435,1.0444,1.0468,1.0481,1.0499,1.052,1.052,1.0545,1.055,1.0556,1.0555,1.0561,1.056,1.0563,1.0567,1.0567,1.0567,1.0567,0,1.0251,1.0266,1.0299,1.0311,1.0329,1.0352,1.0369,1.0386,1.0407,1.0424,1.0442,1.0457,1.0483,1.0502,1.0518,1.0539,1.0544,1.0555,1.0559,1.0553,1.0552,1.0562,1.0562,1.0567,1.0567,1.0567,1.0567,0,1.0241,1.0263,1.0287,1.0318,1.0327,1.0339,1.0366,1.0379,1.0397,1.0417,1.0423,1.0451,1.0473,1.0496,1.0526,1.0538,1.0558,1.0564,1.055,1.0553,1.0557,1.0557,1.0567,1.057,1.0571,1.0571,1.0571,0,1.0241,1.0254,1.0287,1.0299,1.0314,1.0333,1.0348,1.0371,1.0386,1.0415,1.0425,1.0449,1.0469,1.0505,1.0528,1.0551,1.0558,1.056,1.0561,1.0556,1.0559,1.0558,1.056,1.0559,1.0559,1.0559,1.0559,0,1.024,1.0251,1.0271,1.0295,1.0312,1.0332,1.0353,1.0362,1.039,1.0405,1.0429,1.0445,1.0476,1.05,1.0527,1.0543,1.0556,1.0558,1.0561,1.0556,1.0548,1.0553,1.0549,1.0558,1.0558,1.0558,1.0558,1.0558,1.0236,1.0248,1.0273,1.0296,1.0314,1.0333,1.0348,1.0367,1.0387,1.0415,1.0427,1.0451,1.0476,1.0513,1.0529,1.0548,1.0552,1.0555,1.0556,1.0557,1.0556,1.0544,1.0553,1.0553,1.0553,1.0553,1.0553,0,1.0236,1.0254,1.0274,1.0303,1.0321,1.0331,1.0355,1.0369,1.039,1.0412,1.0433,1.046,1.0484,1.0509,1.0534,1.0545,1.0551,1.055,1.055,1.0554,1.0551,1.0547,1.0545,1.0545,1.0545,1.0545,1.0545,1.0545,1.0238,1.026,1.0274,1.0305,1.0322,1.0346,1.0359,1.0377,1.0395,1.0425,1.0445,1.0461,1.0485,1.0512,1.0534,1.0541,1.055,1.0548,1.0556,1.0553,1.0554,1.0554,1.055,1.0549,1.0549,1.0557,1.0557,1.0557]}]]